Weather History for KBWI - November, 2012

Change the Weather History Date:

Thursday, November 1, 2012

  Actual Average Record
Temperature  
Mean Temperature 47 °F 51 °F  
Max Temperature 50 °F 62 °F 86 °F (1950)
Min Temperature 44 °F 40 °F 29 °F (1954)
Degree Days  
Heating Degree Days 18 14  
Month to date heating degree days 18 14  
Since 1 July heating degree days 274 361  
Cooling Degree Days 0 0  
Month to date cooling degree days 0 0  
Year to date cooling degree days 1569 1163  
Moisture  
Dew Point 36 °F    
Average Humidity 63    
Maximum Humidity 70    
Minimum Humidity 56    
Precipitation  
Precipitation T in 0.11 in 1.76 in (1932)
Month to date precipitation T 0.11  
Year to date precipitation 33.60 35.32  
Snow  
Snow 0.00 in 0.00 in T in (1993)
Month to date snowfall 0.0 0.0  
Since 1 July snowfall 0.0 0.0  
Snow Depth 0.00 in    
Sea Level Pressure  
Sea Level Pressure 29.68 in    
Wind  
Wind Speed 9 mph (West)    
Max Wind Speed 20 mph    
Max Gust Speed 24 mph    
Visibility 10 miles    
Events Rain    
T = Trace of Precipitation, MM = Missing Value Source: NWS Daily Summary

Daily Weather History Graph

Daily Weather History Graph

Search for Another Location

Airport or City:

Trip Planner

Search our weather history database for the weather conditions in past years. The results will help you decide how hot, cold, wet, or windy it might be!

Date:

Astronomy

Nov. 01, 2012 Rise Set
Actual Time 7:34 AM EDT 6:05 PM EDT
Civil Twilight 7:07 AM EDT 6:32 PM EDT
Nautical Twilight 6:35 AM EDT 7:04 PM EDT
Astronomical Twilight 6:04 AM EDT 7:35 PM EDT
Moon 8:01 PM EDT (11/1) 10:04 AM EDT (11/1)
Length of Visible Light 11h 25m
Length of Day
10h 30m
Waning Gibbous, 93% of the Moon is Illuminated
Nov 1
Waning Gibbous
Nov 6
Last Quarter
Nov 13
New
Nov 20
First Quarter
Nov 28
Full

Hourly Weather History & Observations

Time (EDT) Temp. Windchill Dew Point Humidity Pressure Visibility Wind Dir Wind Speed Gust Speed Precip Events Conditions
12:54 AM 46.0 °F 43.1 °F 35.1 °F 66% 29.64 in 10.0 mi SW 5.8 mph - N/A   Mostly Cloudy
1:54 AM 45.0 °F 40.6 °F 35.1 °F 68% 29.65 in 10.0 mi WSW 8.1 mph - N/A   Scattered Clouds
2:54 AM 44.1 °F 40.1 °F 35.1 °F 71% 29.65 in 10.0 mi WSW 6.9 mph - N/A   Mostly Cloudy
3:54 AM 45.0 °F 41.2 °F 34.0 °F 65% 29.64 in 10.0 mi WSW 6.9 mph - N/A   Overcast
4:54 AM 45.0 °F 42.6 °F 35.1 °F 68% 29.65 in 10.0 mi West 4.6 mph - N/A   Overcast
5:54 AM 46.0 °F 42.5 °F 35.1 °F 66% 29.65 in 10.0 mi West 6.9 mph - N/A   Mostly Cloudy
6:54 AM 46.0 °F 42.5 °F 35.1 °F 66% 29.66 in 10.0 mi WSW 6.9 mph - N/A   Mostly Cloudy
7:54 AM 46.0 °F 42.5 °F 36.0 °F 68% 29.67 in 10.0 mi WNW 6.9 mph - N/A   Mostly Cloudy
8:54 AM 46.9 °F - 35.1 °F 63% 29.68 in 10.0 mi West 8.1 mph - N/A   Mostly Cloudy
9:54 AM 48.0 °F - 35.1 °F 61% 29.69 in 10.0 mi West 11.5 mph - N/A   Mostly Cloudy
10:54 AM 48.0 °F - 35.1 °F 61% 29.70 in 10.0 mi West 16.1 mph 20.7 mph 0.00 in Rain Light Rain
11:54 AM 48.9 °F - 36.0 °F 61% 29.70 in 10.0 mi West 5.8 mph - 0.00 in Rain Light Rain
12:54 PM 48.9 °F - 36.0 °F 61% 29.69 in 10.0 mi West 13.8 mph - 0.00 in Rain Light Rain
1:54 PM 50.0 °F - 35.6 °F 58% 29.67 in 10.0 mi West 12.7 mph - N/A Rain Light Rain
2:54 PM 50.0 °F - 35.1 °F 57% 29.67 in 10.0 mi West 12.7 mph - 0.00 in   Mostly Cloudy
3:54 PM 50.0 °F - 35.6 °F 58% 29.67 in 10.0 mi West 13.8 mph - N/A   Overcast
4:54 PM 48.9 °F - 36.0 °F 61% 29.67 in 10.0 mi West 11.5 mph - 0.00 in Rain Light Rain
5:54 PM 46.4 °F 42.9 °F 37.4 °F 71% 29.69 in 10.0 mi WSW 6.9 mph - N/A Rain Light Rain
6:54 PM 46.9 °F - 37.9 °F 71% 29.70 in 10.0 mi WSW 6.9 mph - 0.00 in   Overcast
7:54 PM 48.0 °F - 36.0 °F 63% 29.71 in 10.0 mi West 11.5 mph - N/A   Overcast
8:54 PM 48.0 °F - 36.0 °F 63% 29.72 in 10.0 mi West 9.2 mph - N/A   Mostly Cloudy
9:54 PM 48.0 °F - 35.1 °F 61% 29.73 in 10.0 mi West 6.9 mph - N/A   Mostly Cloudy
10:54 PM 48.0 °F - 35.1 °F 61% 29.74 in 10.0 mi West 6.9 mph - N/A   Overcast
11:54 PM 46.9 °F - 35.1 °F 63% 29.74 in 10.0 mi WSW 6.9 mph - N/A   Overcast